Powrót do katalogu

STARLINK-5868

AktywnyŁącznośćVLEO
NORAD 56483·PAYLOAD·🇺🇸 United States

Wystrzelony May 10, 2023 z Vandenberg Space Force Base

Loading…

Następne Przeloty (najbliższe 24 godziny)

TLE

ŚwieżeSource: CelesTrak SupGP

Epoka: Sep 15, 2026, 02:01 UTC

1 56483C 23064AM  26258.08451389  .00507300  00000+0  40554-1 0  2583
2 56483  70.0004   6.8632 0003156 270.7590 327.7755 14.99891071    15

Śledź STARLINK-5868 w czasie rzeczywistym z AllMySat

Download on the App Store